This demonstration page uses our WeatherBlox Daily Observations layout. Learn more.

Left ArrowRight Arrow

Hourly Observations for November 30, 2021

Temp ( °F °C ) Dew Point ( °F °C ) Humidity (%) Winds ( mph kmh ) Pressure ( in mb ) Visibility ( mi km ) Precip ( " mm )
12:53 am 00:53 Clear 38 3.3 28 -2.2 68 68 N N/A 30.07 1018 10 16 N/A
1:53 am 01:53 Clear 38 3.3 28 -2.2 68 68 N N/A 30.08 1019 10 16 N/A
2:53 am 02:53 Clear 36 2.2 28 -2.2 73 73 NW 3 6 30.10 1019 10 16 N/A
3:53 am 03:53 Clear 34 1.1 28 -2.2 79 79 N 5 7 30.10 1019 10 16 N/A
4:53 am 04:53 Clear 37 2.8 30 -1.1 76 76 N 5 7 30.13 1020 10 16 N/A
5:53 am 05:53 Clear 38 3.3 31 -0.6 76 76 NNE 6 9 30.16 1021 10 16 N/A
6:53 am 06:53 Clear 40 4.4 32 undefined 73 73 N 3 6 30.19 1022 10 16 N/A
7:53 am 07:53 Sunny 39 3.9 32 undefined 76 76 N N/A 30.20 1023 10 16 N/A
8:53 am 08:53 Mostly Sunny 42 5.6 34 1.1 73 73 N 7 11 30.23 1024 10 16 N/A
9:53 am 09:53 Cloudy 45 7.2 35 1.7 68 68 N 9 15 30.28 1025 10 16 N/A
10:53 am 10:53 Cloudy 47 8.3 35 1.7 63 63 ENE 3 6 30.25 1024 10 16 N/A
11:53 am 11:53 Sunny 52 11.1 36 2.2 55 55 SSE 5 7 30.20 1023 10 16 N/A
12:53 pm 12:53 Sunny 56 13.3 35 1.7 46 46 VRB 3 6 30.16 1021 10 16 N/A
1:53 pm 13:53 Sunny 58 14.4 34 1.1 41 41 SSE 6 9 30.12 1020 9 14 N/A
2:53 pm 14:53 Sunny 58 14.4 34 1.1 41 41 S 7 11 30.10 1019 10 16 N/A
3:53 pm 15:53 Sunny 58 14.4 34 1.1 41 41 SSW 8 13 30.09 1019 10 16 N/A
4:53 pm 16:53 Sunny 55 12.8 34 1.1 45 45 SSW 5 7 30.07 1018 10 16 N/A
5:53 pm 17:53 Clear 50 10 33 0.6 52 52 S 3 6 30.07 1018 10 16 N/A
6:53 pm 18:53 Clear 48 8.9 33 0.6 56 56 S 8 13 30.04 1017 10 16 N/A
7:53 pm 19:53 Clear 48 8.9 33 0.6 56 56 SSW 10 17 30.03 1017 10 16 N/A
8:53 pm 20:53 Clear 48 8.9 34 1.1 58 58 SSW 9 15 30.01 1016 10 16 N/A
9:53 pm 21:53 Clear 47 8.3 35 1.7 63 63 SSW 9 15 30.00 1016 10 16 N/A
10:53 pm 22:53 Clear 46 7.8 35 1.7 66 66 SSW 7 11 29.99 1016 10 16 N/A
11:53 pm 23:53 Clear 43 6.1 35 1.7 74 74 WSW 5 7 29.98 1015 10 16 N/A

Powered by AerisWeather